contact:dominique.lefevre@mio.osupytheas.fr, maurice.libes@osupytheas.fr, didier.mallarino@osupytheas.fr
Project:EMSO http://www.emso-fr.org/EMSO-France
Depth: 2436.0 m
Title:EMSO Ligure Ouest : Data MII capteur MICROCAT
DateTime_Computer,Latitude,Longitude,Temperature,Conductivity,Pressure,DateTime_Instrument
DateTime_Computer,Latitude,Longitude,degC,S m-1,dbar,DateTime_Instrument
2019-09-20T00:01:56Z,42.805,6.029,13.2998,4.59985,2469.914,2019-9-20T02:02:20Z
2019-09-20T00:05:00Z,42.805,6.029,13.3021,4.59991,2469.937,2019-9-20T02:05:23Z
2019-09-20T00:08:03Z,42.805,6.029,13.3004,4.59989,2469.923,2019-9-20T02:08:26Z
2019-09-20T00:11:06Z,42.805,6.029,13.2988,4.59991,2469.9,2019-9-20T02:11:29Z
2019-09-20T00:14:09Z,42.805,6.029,13.2995,4.59991,2469.89,2019-9-20T02:14:33Z
2019-09-20T00:17:12Z,42.805,6.029,13.2986,4.59978,2469.876,2019-9-20T02:17:36Z
2019-09-20T00:20:16Z,42.805,6.029,13.2992,4.59985,2469.83,2019-9-20T02:20:39Z
2019-09-20T00:23:19Z,42.805,6.029,13.3006,4.60001,2469.89,2019-9-20T02:23:42Z
2019-09-20T00:26:22Z,42.805,6.029,13.3000,4.59986,2469.914,2019-9-20T02:26:45Z
2019-09-20T00:29:25Z,42.805,6.029,13.2998,4.59988,2469.89,2019-9-20T02:29:49Z
2019-09-20T00:32:29Z,42.805,6.029,13.3047,4.60001,2469.867,2019-9-20T02:32:52Z
2019-09-20T00:35:32Z,42.805,6.029,13.3011,4.59997,2469.89,2019-9-20T02:35:55Z
2019-09-20T00:38:35Z,42.805,6.029,13.3001,4.59996,2469.867,2019-9-20T02:38:58Z
2019-09-20T00:41:38Z,42.805,6.029,13.3007,4.60002,2469.914,2019-9-20T02:42:02Z
2019-09-20T00:44:41Z,42.805,6.029,13.3000,4.59987,2469.867,2019-9-20T02:45:05Z
2019-09-20T00:47:45Z,42.805,6.029,13.2996,4.60002,2469.867,2019-9-20T02:48:08Z
2019-09-20T00:50:48Z,42.805,6.029,13.3027,4.60000,2469.89,2019-9-20T02:51:11Z
2019-09-20T00:53:51Z,42.805,6.029,13.3019,4.59999,2469.89,2019-9-20T02:54:14Z
2019-09-20T00:56:54Z,42.805,6.029,13.3033,4.59995,2469.876,2019-9-20T02:57:18Z
2019-09-20T00:59:57Z,42.805,6.029,13.3007,4.59999,2469.867,2019-9-20T03:00:21Z
2019-09-20T01:03:01Z,42.805,6.029,13.3001,4.59994,2469.876,2019-9-20T03:03:24Z
2019-09-20T01:06:04Z,42.805,6.029,13.3004,4.59992,2469.867,2019-9-20T03:06:27Z
2019-09-20T01:09:07Z,42.805,6.029,13.3008,4.59988,2469.876,2019-9-20T03:09:30Z
2019-09-20T01:12:10Z,42.805,6.029,13.3003,4.60006,2469.867,2019-9-20T03:12:34Z
2019-09-20T01:15:13Z,42.805,6.029,13.3026,4.60001,2469.867,2019-9-20T03:15:37Z
2019-09-20T01:18:17Z,42.805,6.029,13.3022,4.59989,2469.89,2019-9-20T03:18:40Z
2019-09-20T01:21:20Z,42.805,6.029,13.3004,4.59998,2469.844,2019-9-20T03:21:43Z
2019-09-20T01:24:23Z,42.805,6.029,13.3004,4.60001,2469.821,2019-9-20T03:24:47Z
2019-09-20T01:27:26Z,42.805,6.029,13.2996,4.59996,2469.853,2019-9-20T03:27:50Z
2019-09-20T01:30:30Z,42.805,6.029,13.3017,4.60001,2469.867,2019-9-20T03:30:53Z
2019-09-20T01:33:33Z,42.805,6.029,13.3019,4.60005,2469.844,2019-9-20T03:33:56Z
2019-09-20T01:36:36Z,42.805,6.029,13.3007,4.60003,2469.867,2019-9-20T03:36:59Z
2019-09-20T01:39:39Z,42.805,6.029,13.3016,4.59994,2469.844,2019-9-20T03:40:03Z
2019-09-20T01:42:42Z,42.805,6.029,13.2999,4.59993,2469.821,2019-9-20T03:43:06Z
2019-09-20T01:45:46Z,42.805,6.029,13.3015,4.59995,2469.844,2019-9-20T03:46:09Z
2019-09-20T01:48:49Z,42.805,6.029,13.3005,4.59997,2469.853,2019-9-20T03:49:12Z
2019-09-20T01:51:52Z,42.805,6.029,13.2999,4.59984,2469.853,2019-9-20T03:52:16Z
2019-09-20T01:54:55Z,42.805,6.029,13.3016,4.59994,2469.806,2019-9-20T03:55:19Z
2019-09-20T01:57:59Z,42.805,6.029,13.3014,4.59996,2469.853,2019-9-20T03:58:22Z
2019-09-20T02:01:02Z,42.805,6.029,13.3003,4.59999,2469.89,2019-9-20T04:01:25Z
2019-09-20T02:04:05Z,42.805,6.029,13.3027,4.59999,2469.783,2019-9-20T04:04:28Z
2019-09-20T02:07:08Z,42.805,6.029,13.3014,4.59996,2469.867,2019-9-20T04:07:32Z
2019-09-20T02:10:11Z,42.805,6.029,13.3009,4.60009,2469.821,2019-9-20T04:10:35Z
2019-09-20T02:13:14Z,42.805,6.029,13.3031,4.59991,2469.806,2019-9-20T04:13:38Z
2019-09-20T02:16:18Z,42.805,6.029,13.3004,4.59997,2469.853,2019-9-20T04:16:41Z
2019-09-20T02:19:21Z,42.805,6.029,13.3008,4.60002,2469.821,2019-9-20T04:19:44Z
2019-09-20T02:22:24Z,42.805,6.029,13.3010,4.59999,2469.867,2019-9-20T04:22:48Z
2019-09-20T02:25:27Z,42.805,6.029,13.3034,4.59995,2469.844,2019-9-20T04:25:51Z
2019-09-20T02:28:31Z,42.805,6.029,13.3020,4.59996,2469.821,2019-9-20T04:28:55Z
2019-09-20T02:31:34Z,42.805,6.029,13.3011,4.60011,2469.844,2019-9-20T04:31:58Z
2019-09-20T02:34:38Z,42.805,6.029,13.2993,4.59994,2469.773,2019-9-20T04:35:01Z
2019-09-20T02:37:41Z,42.805,6.029,13.3011,4.59999,2469.806,2019-9-20T04:38:04Z
2019-09-20T02:40:44Z,42.805,6.029,13.3007,4.59999,2469.821,2019-9-20T04:41:07Z
2019-09-20T02:43:47Z,42.805,6.029,13.3016,4.60009,2469.821,2019-9-20T04:44:11Z
2019-09-20T02:46:50Z,42.805,6.029,13.3021,4.60006,2469.806,2019-9-20T04:47:14Z
2019-09-20T02:49:54Z,42.805,6.029,13.3035,4.59998,2469.773,2019-9-20T04:50:17Z
2019-09-20T02:52:57Z,42.805,6.029,13.3003,4.60010,2469.821,2019-9-20T04:53:20Z
2019-09-20T02:56:00Z,42.805,6.029,13.3019,4.60000,2469.797,2019-9-20T04:56:24Z
2019-09-20T02:59:03Z,42.805,6.029,13.3012,4.59998,2469.821,2019-9-20T04:59:27Z
2019-09-20T03:02:07Z,42.805,6.029,13.3012,4.59983,2469.806,2019-9-20T05:02:30Z
2019-09-20T03:05:10Z,42.805,6.029,13.3012,4.60002,2469.773,2019-9-20T05:05:33Z
2019-09-20T03:08:13Z,42.805,6.029,13.3022,4.60004,2469.821,2019-9-20T05:08:36Z
2019-09-20T03:11:16Z,42.805,6.029,13.3020,4.59989,2469.821,2019-9-20T05:11:40Z
2019-09-20T03:14:19Z,42.805,6.029,13.3010,4.59999,2469.844,2019-9-20T05:14:43Z
2019-09-20T03:17:23Z,42.805,6.029,13.3015,4.60000,2469.783,2019-9-20T05:17:46Z
2019-09-20T03:20:26Z,42.805,6.029,13.3031,4.60003,2469.797,2019-9-20T05:20:49Z
2019-09-20T03:23:29Z,42.805,6.029,13.3040,4.59993,2469.773,2019-9-20T05:23:52Z
2019-09-20T03:26:32Z,42.805,6.029,13.3024,4.60003,2469.806,2019-9-20T05:26:56Z
2019-09-20T03:29:35Z,42.805,6.029,13.3012,4.59986,2469.821,2019-9-20T05:29:59Z
2019-09-20T03:32:39Z,42.805,6.029,13.3014,4.59992,2469.797,2019-9-20T05:33:02Z
2019-09-20T03:35:42Z,42.805,6.029,13.3008,4.60007,2469.783,2019-9-20T05:36:05Z
2019-09-20T03:38:45Z,42.805,6.029,13.3024,4.60003,2469.797,2019-9-20T05:39:08Z
2019-09-20T03:41:48Z,42.805,6.029,13.3016,4.59993,2469.783,2019-9-20T05:42:12Z
2019-09-20T03:44:51Z,42.805,6.029,13.3011,4.59996,2469.76,2019-9-20T05:45:15Z
2019-09-20T03:47:55Z,42.805,6.029,13.3046,4.59998,2469.773,2019-9-20T05:48:18Z
2019-09-20T03:50:58Z,42.805,6.029,13.3029,4.60001,2469.783,2019-9-20T05:51:21Z
2019-09-20T03:54:01Z,42.805,6.029,13.3021,4.59982,2469.821,2019-9-20T05:54:24Z
2019-09-20T03:57:04Z,42.805,6.029,13.3026,4.60000,2469.783,2019-9-20T05:57:28Z
2019-09-20T04:00:07Z,42.805,6.029,13.3051,4.60005,2469.821,2019-9-20T06:00:31Z
2019-09-20T04:03:11Z,42.805,6.029,13.3036,4.59998,2469.806,2019-9-20T06:03:34Z
2019-09-20T04:06:14Z,42.805,6.029,13.3039,4.60006,2469.783,2019-9-20T06:06:37Z
2019-09-20T04:09:17Z,42.805,6.029,13.3031,4.60010,2469.806,2019-9-20T06:09:40Z
2019-09-20T04:12:20Z,42.805,6.029,13.3004,4.59989,2469.76,2019-9-20T06:12:44Z
2019-09-20T04:15:24Z,42.805,6.029,13.3017,4.59992,2469.797,2019-9-20T06:15:47Z
2019-09-20T04:18:27Z,42.805,6.029,13.3020,4.60000,2469.783,2019-9-20T06:18:50Z
2019-09-20T04:21:30Z,42.805,6.029,13.3014,4.59983,2469.821,2019-9-20T06:21:53Z
2019-09-20T04:24:33Z,42.805,6.029,13.2994,4.59995,2469.783,2019-9-20T06:24:57Z
2019-09-20T04:27:36Z,42.805,6.029,13.3021,4.60010,2469.737,2019-9-20T06:28:00Z
2019-09-20T04:30:39Z,42.805,6.029,13.3031,4.59997,2469.773,2019-9-20T06:31:03Z
2019-09-20T04:33:43Z,42.805,6.029,13.3020,4.59986,2469.75,2019-9-20T06:34:06Z
2019-09-20T04:36:46Z,42.805,6.029,13.3010,4.59992,2469.797,2019-9-20T06:37:09Z
2019-09-20T04:39:49Z,42.805,6.029,13.3012,4.60000,2469.737,2019-9-20T06:40:13Z
2019-09-20T04:42:52Z,42.805,6.029,13.3014,4.60018,2469.773,2019-9-20T06:43:16Z
2019-09-20T04:45:56Z,42.805,6.029,13.3029,4.59986,2469.773,2019-9-20T06:46:19Z
2019-09-20T04:48:59Z,42.805,6.029,13.3010,4.59986,2469.821,2019-9-20T06:49:22Z
2019-09-20T04:52:02Z,42.805,6.029,13.3011,4.59994,2469.76,2019-9-20T06:52:25Z
2019-09-20T04:55:05Z,42.805,6.029,13.3043,4.60004,2469.783,2019-9-20T06:55:29Z
2019-09-20T04:58:08Z,42.805,6.029,13.3009,4.59996,2469.783,2019-9-20T06:58:32Z
2019-09-20T05:01:12Z,42.805,6.029,13.3007,4.60008,2469.783,2019-9-20T07:01:35Z
2019-09-20T05:04:15Z,42.805,6.029,13.3012,4.60001,2469.773,2019-9-20T07:04:38Z
2019-09-20T05:07:18Z,42.805,6.029,13.3022,4.60011,2469.783,2019-9-20T07:07:42Z
2019-09-20T05:10:21Z,42.805,6.029,13.3015,4.59990,2469.797,2019-9-20T07:10:45Z
2019-09-20T05:13:25Z,42.805,6.029,13.3011,4.60001,2469.783,2019-9-20T07:13:48Z
2019-09-20T05:16:28Z,42.805,6.029,13.3034,4.60009,2469.797,2019-9-20T07:16:51Z
2019-09-20T05:19:31Z,42.805,6.029,13.3042,4.59989,2469.737,2019-9-20T07:19:54Z
2019-09-20T05:22:34Z,42.805,6.029,13.3017,4.59991,2469.737,2019-9-20T07:22:58Z
2019-09-20T05:25:37Z,42.805,6.029,13.3019,4.60014,2469.783,2019-9-20T07:26:01Z
2019-09-20T05:28:41Z,42.805,6.029,13.3015,4.59994,2469.797,2019-9-20T07:29:04Z
2019-09-20T05:31:44Z,42.805,6.029,13.3021,4.60003,2469.783,2019-9-20T07:32:07Z
2019-09-20T05:34:47Z,42.805,6.029,13.3021,4.59996,2469.797,2019-9-20T07:35:10Z
2019-09-20T05:37:50Z,42.805,6.029,13.3007,4.59999,2469.783,2019-9-20T07:38:14Z
2019-09-20T05:40:53Z,42.805,6.029,13.3016,4.59997,2469.797,2019-9-20T07:41:17Z
2019-09-20T05:43:57Z,42.805,6.029,13.3007,4.59993,2469.783,2019-9-20T07:44:20Z
2019-09-20T05:47:00Z,42.805,6.029,13.2997,4.59980,2469.783,2019-9-20T07:47:23Z
2019-09-20T05:50:03Z,42.805,6.029,13.3009,4.60011,2469.783,2019-9-20T07:50:26Z
2019-09-20T05:53:06Z,42.805,6.029,13.3020,4.59990,2469.783,2019-9-20T07:53:30Z
2019-09-20T05:56:09Z,42.805,6.029,13.3006,4.60009,2469.773,2019-9-20T07:56:33Z
2019-09-20T05:59:13Z,42.805,6.029,13.3021,4.60010,2469.76,2019-9-20T07:59:36Z
2019-09-20T06:02:16Z,42.805,6.029,13.3014,4.60012,2469.783,2019-9-20T08:02:39Z
2019-09-20T06:05:19Z,42.805,6.029,13.3009,4.60015,2469.783,2019-9-20T08:05:42Z
2019-09-20T06:08:22Z,42.805,6.029,13.2986,4.60043,2469.844,2019-9-20T08:08:46Z
2019-09-20T06:11:26Z,42.805,6.029,13.3053,4.60009,2469.806,2019-9-20T08:11:49Z
2019-09-20T06:14:29Z,42.805,6.029,13.2986,4.59987,2469.806,2019-9-20T08:14:52Z
2019-09-20T06:17:32Z,42.805,6.029,13.2996,4.59997,2469.783,2019-9-20T08:17:56Z
2019-09-20T06:20:35Z,42.805,6.029,13.2983,4.59997,2469.806,2019-9-20T08:20:59Z
2019-09-20T06:23:39Z,42.805,6.029,13.2998,4.59999,2469.806,2019-9-20T08:24:02Z
2019-09-20T06:26:42Z,42.805,6.029,13.3004,4.59988,2469.783,2019-9-20T08:27:05Z
2019-09-20T06:29:45Z,42.805,6.029,13.3006,4.59992,2469.797,2019-9-20T08:30:08Z
2019-09-20T06:32:48Z,42.805,6.029,13.2998,4.60003,2469.797,2019-9-20T08:33:12Z
2019-09-20T06:35:51Z,42.805,6.029,13.2997,4.59997,2469.797,2019-9-20T08:36:15Z
2019-09-20T06:38:55Z,42.805,6.029,13.3000,4.60015,2469.821,2019-9-20T08:39:18Z
2019-09-20T06:41:58Z,42.805,6.029,13.3011,4.60014,2469.83,2019-9-20T08:42:21Z
2019-09-20T06:45:01Z,42.805,6.029,13.3051,4.59991,2469.806,2019-9-20T08:45:25Z
2019-09-20T06:48:04Z,42.805,6.029,13.3051,4.59996,2469.844,2019-9-20T08:48:28Z
2019-09-20T06:51:08Z,42.805,6.029,13.3014,4.60004,2469.806,2019-9-20T08:51:31Z
2019-09-20T06:54:11Z,42.805,6.029,13.3026,4.59988,2469.844,2019-9-20T08:54:34Z
2019-09-20T06:57:14Z,42.805,6.029,13.2991,4.59988,2469.83,2019-9-20T08:57:37Z
2019-09-20T07:00:17Z,42.805,6.029,13.3010,4.59985,2469.806,2019-9-20T09:00:41Z
2019-09-20T07:03:20Z,42.805,6.029,13.3016,4.60006,2469.83,2019-9-20T09:03:44Z
2019-09-20T07:06:23Z,42.805,6.029,13.3004,4.59996,2469.821,2019-9-20T09:06:47Z
2019-09-20T07:09:27Z,42.805,6.029,13.2998,4.60003,2469.821,2019-9-20T09:09:50Z
2019-09-20T07:12:30Z,42.805,6.029,13.3040,4.59999,2469.83,2019-9-20T09:12:53Z
2019-09-20T07:15:33Z,42.805,6.029,13.3035,4.59996,2469.821,2019-9-20T09:15:57Z
2019-09-20T07:18:36Z,42.805,6.029,13.3025,4.60011,2469.821,2019-9-20T09:19:00Z
2019-09-20T07:21:40Z,42.805,6.029,13.2996,4.60013,2469.844,2019-9-20T09:22:03Z
2019-09-20T07:24:43Z,42.805,6.029,13.2992,4.60009,2469.83,2019-9-20T09:25:06Z
2019-09-20T07:27:46Z,42.805,6.029,13.2993,4.59999,2469.867,2019-9-20T09:28:09Z
2019-09-20T07:30:49Z,42.805,6.029,13.3000,4.60006,2469.853,2019-9-20T09:31:13Z
2019-09-20T07:33:52Z,42.805,6.029,13.2999,4.60026,2469.844,2019-9-20T09:34:16Z
2019-09-20T07:36:56Z,42.805,6.029,13.2998,4.60038,2469.867,2019-9-20T09:37:19Z
2019-09-20T07:39:59Z,42.805,6.029,13.2986,4.60003,2469.853,2019-9-20T09:40:22Z
2019-09-20T07:43:02Z,42.805,6.029,13.2998,4.59994,2469.844,2019-9-20T09:43:25Z
2019-09-20T07:46:05Z,42.805,6.029,13.3027,4.60006,2469.9,2019-9-20T09:46:29Z
2019-09-20T07:49:08Z,42.805,6.029,13.3023,4.60021,2469.89,2019-9-20T09:49:32Z
2019-09-20T07:52:12Z,42.805,6.029,13.3030,4.60009,2469.853,2019-9-20T09:52:35Z
2019-09-20T07:55:15Z,42.805,6.029,13.3022,4.60006,2469.867,2019-9-20T09:55:38Z
2019-09-20T07:58:18Z,42.805,6.029,13.3023,4.60001,2469.853,2019-9-20T09:58:42Z
2019-09-20T08:01:21Z,42.805,6.029,13.3011,4.59995,2469.89,2019-9-20T10:01:45Z
2019-09-20T08:04:25Z,42.805,6.029,13.3010,4.60006,2469.867,2019-9-20T10:04:48Z
2019-09-20T08:07:28Z,42.805,6.029,13.2995,4.59982,2469.914,2019-9-20T10:07:51Z
2019-09-20T08:10:31Z,42.805,6.029,13.3006,4.59991,2469.9,2019-9-20T10:10:55Z
2019-09-20T08:13:34Z,42.805,6.029,13.3005,4.59994,2469.876,2019-9-20T10:13:58Z
2019-09-20T08:16:37Z,42.805,6.029,13.2996,4.59996,2469.914,2019-9-20T10:17:01Z
2019-09-20T08:19:41Z,42.805,6.029,13.3007,4.60026,2469.853,2019-9-20T10:20:04Z
2019-09-20T08:22:44Z,42.805,6.029,13.3011,4.60024,2469.9,2019-9-20T10:23:07Z
2019-09-20T08:25:47Z,42.805,6.029,13.3015,4.60014,2469.89,2019-9-20T10:26:11Z
2019-09-20T08:28:50Z,42.805,6.029,13.3016,4.60009,2469.923,2019-9-20T10:29:14Z
2019-09-20T08:31:54Z,42.805,6.029,13.3026,4.60016,2469.9,2019-9-20T10:32:17Z
2019-09-20T08:34:57Z,42.805,6.029,13.3031,4.60020,2469.89,2019-9-20T10:35:20Z
2019-09-20T08:38:00Z,42.805,6.029,13.3021,4.59996,2469.89,2019-9-20T10:38:24Z
2019-09-20T08:41:03Z,42.805,6.029,13.3055,4.60024,2469.914,2019-9-20T10:41:27Z
2019-09-20T08:44:07Z,42.805,6.029,13.3007,4.60011,2469.876,2019-9-20T10:44:30Z
2019-09-20T08:47:10Z,42.805,6.029,13.3041,4.60005,2469.914,2019-9-20T10:47:33Z
2019-09-20T08:50:13Z,42.805,6.029,13.3021,4.59999,2469.9,2019-9-20T10:50:36Z
2019-09-20T08:53:16Z,42.805,6.029,13.3029,4.60016,2469.9,2019-9-20T10:53:40Z
2019-09-20T08:56:20Z,42.805,6.029,13.3040,4.60016,2469.937,2019-9-20T10:56:43Z
2019-09-20T08:59:23Z,42.805,6.029,13.2997,4.60031,2469.923,2019-9-20T10:59:46Z
2019-09-20T09:02:26Z,42.805,6.029,13.3039,4.60019,2469.914,2019-9-20T11:02:49Z
2019-09-20T09:05:29Z,42.805,6.029,13.3043,4.59999,2469.9,2019-9-20T11:05:53Z
2019-09-20T09:08:32Z,42.805,6.029,13.3026,4.60014,2469.937,2019-9-20T11:08:56Z
2019-09-20T09:11:36Z,42.805,6.029,13.3034,4.60021,2469.937,2019-9-20T11:11:59Z
2019-09-20T09:14:39Z,42.805,6.029,13.3036,4.60021,2469.923,2019-9-20T11:15:02Z
2019-09-20T09:17:42Z,42.805,6.029,13.3047,4.59994,2469.937,2019-9-20T11:18:06Z
2019-09-20T09:20:45Z,42.805,6.029,13.3044,4.60031,2469.9,2019-9-20T11:21:09Z
2019-09-20T09:23:48Z,42.805,6.029,13.3040,4.60044,2469.9,2019-9-20T11:24:12Z
2019-09-20T09:26:52Z,42.805,6.029,13.3031,4.60054,2469.937,2019-9-20T11:27:15Z
2019-09-20T09:29:55Z,42.805,6.029,13.3046,4.60011,2469.923,2019-9-20T11:30:18Z
2019-09-20T09:32:58Z,42.805,6.029,13.3016,4.60002,2469.923,2019-9-20T11:33:22Z
2019-09-20T09:36:01Z,42.805,6.029,13.3045,4.60036,2469.923,2019-9-20T11:36:25Z
2019-09-20T09:39:05Z,42.805,6.029,13.3019,4.60026,2469.914,2019-9-20T11:39:28Z
2019-09-20T09:42:08Z,42.805,6.029,13.3023,4.60031,2469.937,2019-9-20T11:42:31Z
2019-09-20T09:45:11Z,42.805,6.029,13.2992,4.59996,2469.923,2019-9-20T11:45:34Z
2019-09-20T09:48:14Z,42.805,6.029,13.3005,4.60010,2469.923,2019-9-20T11:48:38Z
2019-09-20T09:51:17Z,42.805,6.029,13.2983,4.60036,2469.937,2019-9-20T11:51:41Z
2019-09-20T09:54:21Z,42.805,6.029,13.3015,4.60008,2469.9,2019-9-20T11:54:44Z
2019-09-20T09:57:24Z,42.805,6.029,13.2991,4.60014,2469.923,2019-9-20T11:57:47Z
2019-09-20T10:00:27Z,42.805,6.029,13.2993,4.59978,2469.914,2019-9-20T12:00:51Z
2019-09-20T10:03:30Z,42.805,6.029,13.2984,4.60009,2469.96,2019-9-20T12:03:54Z
2019-09-20T10:06:34Z,42.805,6.029,13.2990,4.59993,2469.947,2019-9-20T12:06:57Z
2019-09-20T10:09:37Z,42.805,6.029,13.2986,4.60000,2469.96,2019-9-20T12:10:00Z
2019-09-20T10:12:40Z,42.805,6.029,13.3028,4.60002,2469.9,2019-9-20T12:13:04Z
2019-09-20T10:15:43Z,42.805,6.029,13.2996,4.60002,2469.947,2019-9-20T12:16:07Z
2019-09-20T10:18:46Z,42.805,6.029,13.3006,4.60004,2469.9,2019-9-20T12:19:10Z
2019-09-20T10:21:50Z,42.805,6.029,13.3006,4.60001,2469.914,2019-9-20T12:22:13Z
2019-09-20T10:24:53Z,42.805,6.029,13.3014,4.59987,2469.923,2019-9-20T12:25:16Z
2019-09-20T10:27:56Z,42.805,6.029,13.3009,4.60009,2469.947,2019-9-20T12:28:20Z
2019-09-20T10:30:59Z,42.805,6.029,13.3005,4.59988,2469.947,2019-9-20T12:31:23Z
2019-09-20T10:34:02Z,42.805,6.029,13.2991,4.59999,2469.96,2019-9-20T12:34:26Z
2019-09-20T10:37:06Z,42.805,6.029,13.2990,4.59990,2469.96,2019-9-20T12:37:29Z
2019-09-20T10:40:09Z,42.805,6.029,13.2977,4.60009,2469.937,2019-9-20T12:40:32Z
2019-09-20T10:43:12Z,42.805,6.029,13.2986,4.60001,2469.937,2019-9-20T12:43:36Z
2019-09-20T10:46:15Z,42.805,6.029,13.2991,4.60003,2469.96,2019-9-20T12:46:39Z
2019-09-20T10:49:19Z,42.805,6.029,13.3002,4.60007,2469.914,2019-9-20T12:49:42Z
2019-09-20T10:52:22Z,42.805,6.029,13.3003,4.60026,2469.96,2019-9-20T12:52:45Z
2019-09-20T10:55:25Z,42.805,6.029,13.2993,4.59996,2469.914,2019-9-20T12:55:49Z
2019-09-20T10:58:28Z,42.805,6.029,13.3011,4.59993,2469.96,2019-9-20T12:58:52Z
2019-09-20T11:01:32Z,42.805,6.029,13.3007,4.60032,2469.937,2019-9-20T13:01:55Z
2019-09-20T11:04:35Z,42.805,6.029,13.2990,4.60026,2469.923,2019-9-20T13:04:58Z
2019-09-20T11:07:38Z,42.805,6.029,13.2976,4.60002,2469.937,2019-9-20T13:08:01Z
2019-09-20T11:10:41Z,42.805,6.029,13.3000,4.59998,2469.937,2019-9-20T13:11:05Z
2019-09-20T11:13:44Z,42.805,6.029,13.2991,4.59976,2469.947,2019-9-20T13:14:08Z
2019-09-20T11:16:48Z,42.805,6.029,13.2979,4.59996,2469.937,2019-9-20T13:17:11Z
2019-09-20T11:19:51Z,42.805,6.029,13.2981,4.60024,2469.923,2019-9-20T13:20:14Z
2019-09-20T11:22:54Z,42.805,6.029,13.2980,4.60001,2469.914,2019-9-20T13:23:18Z
2019-09-20T11:25:57Z,42.805,6.029,13.2987,4.60002,2469.923,2019-9-20T13:26:21Z
2019-09-20T11:29:00Z,42.805,6.029,13.2998,4.60014,2469.914,2019-9-20T13:29:24Z
2019-09-20T11:32:04Z,42.805,6.029,13.2993,4.60027,2469.947,2019-9-20T13:32:27Z
2019-09-20T11:35:07Z,42.805,6.029,13.2990,4.59996,2469.937,2019-9-20T13:35:30Z
2019-09-20T11:38:10Z,42.805,6.029,13.2982,4.59985,2469.914,2019-9-20T13:38:34Z
2019-09-20T11:41:13Z,42.805,6.029,13.3004,4.59974,2469.923,2019-9-20T13:41:37Z
2019-09-20T11:44:17Z,42.805,6.029,13.3017,4.60014,2469.923,2019-9-20T13:44:40Z
2019-09-20T11:47:20Z,42.805,6.029,13.2996,4.60002,2469.914,2019-9-20T13:47:43Z
2019-09-20T11:50:23Z,42.805,6.029,13.2998,4.59995,2469.923,2019-9-20T13:50:46Z
2019-09-20T11:53:26Z,42.805,6.029,13.3020,4.59975,2469.9,2019-9-20T13:53:50Z
2019-09-20T11:56:29Z,42.805,6.029,13.2989,4.59989,2469.923,2019-9-20T13:56:53Z
2019-09-20T11:59:33Z,42.805,6.029,13.2982,4.60000,2469.914,2019-9-20T13:59:56Z
2019-09-20T12:02:36Z,42.805,6.029,13.2986,4.60004,2469.923,2019-9-20T14:02:59Z
2019-09-20T12:05:39Z,42.805,6.029,13.2995,4.59979,2469.923,2019-9-20T14:06:02Z
2019-09-20T12:08:42Z,42.805,6.029,13.3004,4.60010,2469.947,2019-9-20T14:09:06Z
2019-09-20T12:11:45Z,42.805,6.029,13.3004,4.60021,2469.923,2019-9-20T14:12:09Z
2019-09-20T12:14:49Z,42.805,6.029,13.2997,4.60041,2469.937,2019-9-20T14:15:12Z
2019-09-20T12:17:52Z,42.805,6.029,13.3009,4.60003,2469.9,2019-9-20T14:18:15Z
2019-09-20T12:20:55Z,42.805,6.029,13.3023,4.59999,2469.937,2019-9-20T14:21:19Z
2019-09-20T12:23:58Z,42.805,6.029,13.3005,4.60014,2469.914,2019-9-20T14:24:22Z
2019-09-20T12:27:02Z,42.805,6.029,13.3010,4.60003,2469.9,2019-9-20T14:27:25Z
2019-09-20T12:30:05Z,42.805,6.029,13.3005,4.59998,2469.923,2019-9-20T14:30:28Z
2019-09-20T12:33:08Z,42.805,6.029,13.3004,4.60019,2469.937,2019-9-20T14:33:31Z
2019-09-20T12:36:11Z,42.805,6.029,13.2993,4.60002,2469.937,2019-9-20T14:36:35Z
2019-09-20T12:39:14Z,42.805,6.029,13.3019,4.59991,2469.9,2019-9-20T14:39:38Z
2019-09-20T12:42:18Z,42.805,6.029,13.2996,4.59991,2469.914,2019-9-20T14:42:41Z
2019-09-20T12:45:21Z,42.805,6.029,13.2975,4.59975,2469.914,2019-9-20T14:45:44Z
2019-09-20T12:48:24Z,42.805,6.029,13.3011,4.60011,2469.9,2019-9-20T14:48:47Z
2019-09-20T12:51:27Z,42.805,6.029,13.2993,4.60051,2469.923,2019-9-20T14:51:51Z
2019-09-20T12:54:30Z,42.805,6.029,13.3014,4.60024,2469.914,2019-9-20T14:54:54Z
2019-09-20T12:57:34Z,42.805,6.029,13.3018,4.60027,2469.951,2019-9-20T14:57:57Z
2019-09-20T13:00:37Z,42.805,6.029,13.3030,4.60010,2469.9,2019-9-20T15:01:00Z
2019-09-20T13:03:40Z,42.805,6.029,13.3007,4.59987,2469.9,2019-9-20T15:04:04Z
2019-09-20T13:06:44Z,42.805,6.029,13.3003,4.60000,2469.914,2019-9-20T15:07:07Z
2019-09-20T13:09:47Z,42.805,6.029,13.2993,4.60036,2469.867,2019-9-20T15:10:10Z
2019-09-20T13:12:50Z,42.805,6.029,13.2982,4.60004,2469.9,2019-9-20T15:13:13Z
2019-09-20T13:15:53Z,42.805,6.029,13.2991,4.60024,2469.9,2019-9-20T15:16:17Z
2019-09-20T13:18:56Z,42.805,6.029,13.3011,4.60010,2469.9,2019-9-20T15:19:20Z
2019-09-20T13:22:00Z,42.805,6.029,13.3048,4.60044,2469.89,2019-9-20T15:22:23Z
2019-09-20T13:25:03Z,42.805,6.029,13.3009,4.60014,2469.876,2019-9-20T15:25:26Z
2019-09-20T13:28:06Z,42.805,6.029,13.3014,4.60021,2469.89,2019-9-20T15:28:30Z
2019-09-20T13:31:09Z,42.805,6.029,13.3018,4.60019,2469.89,2019-9-20T15:31:33Z
2019-09-20T13:34:12Z,42.805,6.029,13.2976,4.60008,2469.89,2019-9-20T15:34:36Z
2019-09-20T13:37:16Z,42.805,6.029,13.2985,4.59999,2469.89,2019-9-20T15:37:39Z
2019-09-20T13:40:19Z,42.805,6.029,13.3006,4.59999,2469.9,2019-9-20T15:40:42Z
2019-09-20T13:43:22Z,42.805,6.029,13.2998,4.60016,2469.9,2019-9-20T15:43:46Z
2019-09-20T13:46:25Z,42.805,6.029,13.3009,4.60028,2469.853,2019-9-20T15:46:49Z
2019-09-20T13:49:28Z,42.805,6.029,13.2996,4.60028,2469.914,2019-9-20T15:49:52Z
2019-09-20T13:52:32Z,42.805,6.029,13.2997,4.60039,2469.853,2019-9-20T15:52:55Z
2019-09-20T13:55:35Z,42.805,6.029,13.3016,4.60044,2469.914,2019-9-20T15:55:58Z
2019-09-20T13:58:38Z,42.805,6.029,13.3021,4.60011,2469.914,2019-9-20T15:59:02Z
2019-09-20T14:01:42Z,42.805,6.029,13.3004,4.60044,2469.89,2019-9-20T16:02:05Z
2019-09-20T14:04:45Z,42.805,6.029,13.3014,4.60066,2469.867,2019-9-20T16:05:08Z
2019-09-20T14:07:48Z,42.805,6.029,13.3003,4.60046,2469.9,2019-9-20T16:08:11Z
2019-09-20T14:10:51Z,42.805,6.029,13.3037,4.60108,2469.876,2019-9-20T16:11:15Z
2019-09-20T14:13:54Z,42.805,6.029,13.2985,4.60039,2469.867,2019-9-20T16:14:18Z
2019-09-20T14:16:58Z,42.805,6.029,13.3016,4.60014,2469.844,2019-9-20T16:17:21Z
2019-09-20T14:20:01Z,42.805,6.029,13.3029,4.60089,2469.867,2019-9-20T16:20:24Z
2019-09-20T14:23:04Z,42.805,6.029,13.3025,4.60044,2469.867,2019-9-20T16:23:27Z
2019-09-20T14:26:07Z,42.805,6.029,13.3009,4.60022,2469.914,2019-9-20T16:26:31Z
2019-09-20T14:29:10Z,42.805,6.029,13.3024,4.60016,2469.876,2019-9-20T16:29:34Z
2019-09-20T14:32:14Z,42.805,6.029,13.3031,4.60017,2469.853,2019-9-20T16:32:37Z
2019-09-20T14:35:17Z,42.805,6.029,13.3022,4.60124,2469.844,2019-9-20T16:35:40Z
2019-09-20T14:38:20Z,42.805,6.029,13.3026,4.59985,2469.867,2019-9-20T16:38:43Z
2019-09-20T14:41:23Z,42.805,6.029,13.2982,4.60018,2469.867,2019-9-20T16:41:47Z
2019-09-20T14:44:26Z,42.805,6.029,13.3028,4.60036,2469.853,2019-9-20T16:44:50Z
2019-09-20T14:47:30Z,42.805,6.029,13.3003,4.60033,2469.89,2019-9-20T16:47:53Z
2019-09-20T14:50:33Z,42.805,6.029,13.3021,4.60057,2469.867,2019-9-20T16:50:56Z
2019-09-20T14:53:36Z,42.805,6.029,13.3034,4.60022,2469.867,2019-9-20T16:53:59Z
2019-09-20T14:56:39Z,42.805,6.029,13.2989,4.60038,2469.9,2019-9-20T16:57:03Z
2019-09-20T14:59:43Z,42.805,6.029,13.3048,4.60062,2469.867,2019-9-20T17:00:06Z
2019-09-20T15:02:46Z,42.805,6.029,13.3029,4.59997,2469.867,2019-9-20T17:03:09Z
2019-09-20T15:05:49Z,42.805,6.029,13.3002,4.60034,2469.876,2019-9-20T17:06:13Z
2019-09-20T15:08:52Z,42.805,6.029,13.3003,4.60032,2469.867,2019-9-20T17:09:16Z
2019-09-20T15:11:56Z,42.805,6.029,13.3002,4.60026,2469.876,2019-9-20T17:12:19Z
2019-09-20T15:14:59Z,42.805,6.029,13.2993,4.59993,2469.867,2019-9-20T17:15:22Z